Погода в Саламо

Папуа-Новая Гвинея     9°40′00″S   150°47′34″E
темп.,
°C
ветер,
м/с
пор.,
м/с
влажн.,
%
обл.,
%
осадки,
мм/ч
давл.,
гПа
погр.,
м
1 августа, вс
вс101:00+26юв336819 0.0 1013670
04:00+25юв337075 0.0 1012619
07:00+25ююв446720 0.0 1014825
10:00+26ююв666357 0.0 10151110
13:00+26ю986673 0.0 10131149
16:00+26ю886838 0.0 1011955
19:00+25ююв776954 0.0 1014807
22:00+25ююв6668100 0.0 1014804
2 августа, пн
пн201:00+25ююв5665100 0.0 1012845
04:00+25ююв566860 0.0 1012869
07:00+25ююв45685 0.0 1014820
10:00+25юв33665 0.0 1014770
13:00+26ююв33647 0.0 1012752
16:00+27вюв3363100 0.0 1010839
19:00+26всв336678 0.0 1012834
22:00+26в226610 0.0 1013732
3 августа, вт
вт301:00+25св226897 0.0 1012590
04:00+25св227253 0.0 1012483
07:00+26в227137 0.0 1013399
10:00+26юв226911 0.1 1014378
13:00+26юв226915 0.0 1011399
16:00+27вюв336927 0.1 1011666
19:00+26всв567819 0.1 1012554
22:00+26вюв347910 0.8 1013525
4 августа, ср
ср401:00+26всв22797 0.6 1012317
04:00+26в22796 0.7 1012418
07:00+26вюв11806 0.1 1014336
10:00+26ююв33778 0.3 1014522
13:00+27ююв447752 0.4 1012636
16:00+27юв447982 1.4 1011499
19:00+26ююв557938 0.6 1013574
22:00+26ююв568079 0.6 1014567
5 августа, чт
чт501:00+26ююв458198 0.2 1013509
04:00+26ююв678298 1.4 1012548
07:00+26ююв678240 1.4 1014601
10:00+26ююв778098 2.2 1014752
13:00+26ююв10108181 2.9 1012861
16:00+26ююв101077100 3.6 1011979
19:00+26ююв9107496 0.2 1013997
22:00+26ююв81072100 0.3 10151070